Change the Weather History Date:

Monday, November 19, 2012

  Actual Average Record
Temperature  
Mean Temperature 53 °F -  
Max Temperature 62 °F 60 °F 78 °F (1999)
Min Temperature 44 °F 40 °F 26 °F (2001)
Degree Days  
Heating Degree Days 12    
Growing Degree Days 3 (Base 50)    
Moisture  
Dew Point 48 °F    
Average Humidity 83    
Maximum Humidity 100    
Minimum Humidity 53    
Precipitation  
Precipitation 0.00 in - - ()
Sea Level Pressure  
Sea Level Pressure 30.01 in    
Wind  
Wind Speed 7 mph ()    
Max Wind Speed 12 mph    
Max Gust Speed -    
Visibility 4.2 miles    
Events Fog    
Averages and records for this station are not official NWS values.
T = Trace of Precipitation, MM = Missing Value Source: Averaged Metar Reports

Daily Weather History Graph

Daily Weather History Graph

Search for Another Location

Airport or City:

Trip Planner

Search our weather history database for the weather conditions in past years. The results will help you decide how hot, cold, wet, or windy it might be!

Date:

Astronomy

Nov. 19, 2012 Rise Set
Actual Time 6:56 AM AST 5:23 PM AST
Civil Twilight 6:30 AM AST 5:49 PM AST
Nautical Twilight 6:01 AM AST 6:19 PM AST
Astronomical Twilight 5:32 AM AST 6:48 PM AST
Moon 11:53 AM AST (11/19) 11:18 PM AST (11/19)
Length of Visible Light 11h 19m
Length of Day
10h 27m
Waxing Crescent, 37% of the Moon is Illuminated
Nov 19
Waxing Crescent
Nov 20
First Quarter
Nov 28
Full
Dec 6
Last Quarter
Dec 13
New

Hourly Weather History & Observations

Time (AST) Temp. Windchill Dew Point Humidity Pressure Visibility Wind Dir Wind Speed Gust Speed Precip Events Conditions
12:00 AM 54 °F - 48 °F 74%  in 6 mi ENE 11.5 mph - -   Mostly Cloudy
12:00 AM 53.6 °F - 48.2 °F 82% 29.98 in - ENE 11.5 mph - N/A   Clear
1:00 AM 50.0 °F - 46.4 °F 87% 29.98 in - ENE 4.6 mph - N/A   Clear
2:00 AM 50.0 °F - 46.4 °F 87% 29.98 in - Calm Calm - N/A   Clear
3:00 AM 50 °F - 48 °F 91%  in 6 mi Calm Calm - -   Partly Cloudy
3:00 AM 50.0 °F - 48.2 °F 94% 29.98 in - Calm Calm - N/A   Clear
4:00 AM 48.2 °F - 46.4 °F 93% 29.98 in - North 4.6 mph - N/A   Clear
5:00 AM 48.2 °F - 46.4 °F 93% 29.98 in 4.3 mi Calm Calm - N/A   Unknown
6:00 AM 46 °F - 46 °F 100%  in 4 mi North 6.9 mph - -   Mist
6:00 AM 46.4 °F 42.9 °F 46.4 °F 100% 29.98 in 3.7 mi North 6.9 mph - N/A   Clear
7:00 AM 44.6 °F 39.7 °F 44.6 °F 100% 29.98 in 1.9 mi NNW 9.2 mph - N/A   Mist
8:00 AM 46.4 °F 41.9 °F 46.4 °F 100% 30.01 in 2.5 mi NW 9.2 mph - N/A   Clear
8:15 AM 44.6 °F 39.7 °F 44.6 °F 100% 30.01 in 0.0 mi North 9.2 mph - N/A Fog Fog
9:00 AM 46.4 °F 41.9 °F 46.4 °F 100% 30.04 in 0.6 mi North 9.2 mph - N/A Fog Fog
10:00 AM 50.0 °F - 50.0 °F 100% 30.04 in 2.5 mi North 6.9 mph - N/A   Mostly Cloudy
11:00 AM 55.4 °F - 51.8 °F 88% 30.04 in 3.1 mi North 9.2 mph - N/A   Clear
12:00 PM 59 °F - 52 °F 70%  in 4 mi NNW 9.2 mph - -   Mist
12:00 PM 59.0 °F - 51.8 °F 77% 30.01 in 4.3 mi NNW 9.2 mph - N/A   Partly Cloudy
1:00 PM 60.8 °F - 50.0 °F 68% 30.01 in 6.2 mi NNW 9.2 mph - N/A   Scattered Clouds
2:00 PM 62.6 °F - 50.0 °F 63% 29.98 in - NW 9.2 mph - N/A   Clear
3:00 PM 63 °F - 50 °F 53%  in 6 mi NW 9.2 mph - -   Partly Cloudy
3:00 PM 62.6 °F - 50.0 °F 63% 29.98 in 6.2 mi NW 9.2 mph - N/A   Scattered Clouds
4:00 PM 62.6 °F - 50.0 °F 63% 30.01 in 6.2 mi WNW 11.5 mph - N/A   Partly Cloudy
5:00 PM 60.8 °F - 50.0 °F 68% 30.01 in - NW 11.5 mph - N/A   Clear
6:00 PM 57 °F - 50 °F 70%  in 6 mi North 9.2 mph - -  
6:00 PM 57.2 °F - 50.0 °F 77% 30.04 in - North 9.2 mph - N/A   Clear
7:00 PM 55.4 °F - 50.0 °F 82% 30.04 in - North 9.2 mph - N/A   Clear
8:00 PM 53.6 °F - 48.2 °F 82% 30.06 in - NE 9.2 mph - N/A   Clear
9:00 PM 52 °F - 48 °F 82%  in 6 mi NE 6.9 mph - -  
9:00 PM 51.8 °F - 48.2 °F 88% 30.06 in - NE 6.9 mph - N/A   Clear
10:00 PM 51.8 °F - 48.2 °F 88% 30.09 in - NE 9.2 mph - N/A   Clear
11:00 PM 50.0 °F - 46.4 °F 87% 30.09 in - NE 6.9 mph - N/A   Clear